z/d,0,0,50,50,100,100,200,200,300,300,400,400,500,500,750,750,1000,1000,2000,2000,3000,3000,4000,4000,4700,4700
2016.08.15-01:00,.90,94.05,.93,85.20,1.02,83.80,1.04,75.44,1.01,78.34,.91,78.20,.80,78.23,.59,76.59,.49,72.60,.32,66.91,.05,2.52,.01,328.19,.02,270.00
2016.08.15-02:00,.80,95.28,.86,87.12,.97,83.69,1.05,75.54,1.01,79.00,.92,77.93,.81,78.03,.59,78.24,.49,74.76,.32,66.33,.06,2.15,.02,301.62,.02,270.00
2016.08.15-03:00,.71,96.04,.79,88.25,.94,82.67,1.07,75.91,1.00,79.21,.93,77.31,.81,77.35,.59,78.45,.49,76.06,.33,66.15,.07,12.52,.02,305.53,.02,270.00
2016.08.15-04:00,.66,97.22,.73,88.42,.92,80.98,1.09,76.42,1.00,78.78,.94,76.36,.82,76.34,.59,77.59,.49,76.44,.35,66.42,.08,26.33,.01,337.47,.02,270.00
2016.08.15-05:00,.63,99.10,.70,87.72,.93,79.11,1.10,76.86,1.00,77.65,.95,75.14,.83,75.15,.60,76.12,.49,75.88,.37,67.05,.10,39.14,.02,26.35,.02,270.00
2016.08.15-06:00,.63,101.76,.71,86.53,.95,77.71,1.12,77.24,1.02,76.24,.97,74.12,.85,74.13,.61,74.64,.51,74.47,.39,67.89,.12,48.50,.04,45.28,.01,270.00
2016.08.15-07:00,.62,104.71,.72,85.19,.98,76.97,1.13,77.48,1.03,74.93,.99,73.56,.86,73.50,.62,73.73,.52,72.71,.41,68.97,.14,54.47,.06,49.80,.01,270.00
2016.08.15-08:00,.63,107.02,.75,84.06,1.01,76.86,1.14,77.55,1.05,74.01,1.01,73.56,.88,73.27,.64,73.67,.53,71.15,.42,70.19,.15,58.21,.07,49.71,.00,270.00
2016.08.15-09:00,.63,108.90,.77,83.99,1.03,77.48,1.14,77.70,1.07,73.74,1.03,74.13,.88,73.42,.64,74.39,.54,70.04,.42,71.26,.16,60.17,.07,46.66,.00,270.00
2016.08.15-10:00,.61,110.18,.78,85.24,1.04,78.50,1.13,77.88,1.08,73.98,1.03,74.89,.88,73.58,.63,75.42,.54,69.45,.41,72.16,.15,61.12,.07,41.57,.00,270.00
2016.08.15-11:00,.58,112.69,.77,87.55,1.03,79.55,1.12,78.09,1.09,74.62,1.02,75.69,.87,73.73,.61,76.68,.54,69.78,.39,73.02,.13,61.53,.07,33.48,.01,270.00
2016.08.15-12:00,.54,116.28,.72,90.36,1.00,80.28,1.11,78.31,1.09,75.47,1.02,76.41,.87,73.86,.59,78.00,.53,71.13,.36,73.58,.11,61.09,.05,20.28,.01,270.00
2016.08.15-13:00,.49,121.96,.65,93.35,.97,80.72,1.10,78.63,1.09,76.40,1.01,77.02,.88,74.03,.57,79.13,.52,73.32,.34,73.76,.08,59.55,.05,1.16,.02,270.00
2016.08.15-14:00,.44,130.97,.57,96.11,.93,80.96,1.08,79.12,1.08,77.30,1.00,77.53,.89,74.33,.55,79.62,.51,75.80,.33,73.84,.06,57.16,.04,342.01,.02,270.00
2016.08.15-15:00,.41,139.96,.49,97.63,.90,80.90,1.07,79.63,1.08,78.02,.99,77.95,.89,74.77,.54,78.78,.50,77.60,.32,74.00,.05,54.00,.04,330.11,.02,270.00
2016.08.15-16:00,.39,147.82,.43,97.12,.88,80.58,1.06,79.93,1.07,78.45,.98,78.24,.90,75.29,.52,76.32,.49,78.13,.32,74.47,.04,52.85,.04,330.73,.02,270.00
2016.08.15-17:00,.39,153.52,.41,94.71,.88,80.21,1.05,79.81,1.07,78.52,.98,78.32,.90,75.87,.52,72.82,.48,77.59,.33,75.46,.05,55.63,.03,349.24,.02,270.00
2016.08.15-18:00,.40,155.64,.42,91.96,.88,79.94,1.04,79.18,1.06,78.26,.97,78.06,.90,76.39,.53,69.28,.48,76.33,.34,76.52,.06,57.48,.03,18.85,.01,270.00
2016.08.15-19:00,.42,154.62,.45,90.63,.89,79.87,1.03,78.19,1.05,77.82,.96,77.47,.90,76.81,.55,66.74,.49,74.96,.35,77.60,.07,58.50,.04,39.96,.01,270.00
2016.08.15-20:00,.40,157.10,.47,90.88,.89,79.87,1.03,76.98,1.05,77.29,.96,76.60,.90,77.04,.58,65.52,.50,73.67,.36,78.60,.08,58.23,.05,49.97,.00,270.00
2016.08.15-21:00,.40,165.03,.47,92.27,.88,80.01,1.03,75.91,1.05,76.96,.96,75.80,.90,77.31,.61,65.71,.51,72.71,.36,79.70,.08,56.77,.05,54.02,.00,270.00
2016.08.15-22:00,.40,174.81,.46,93.58,.87,80.02,1.04,75.00,1.05,76.76,.95,75.06,.89,77.64,.62,67.09,.52,72.21,.35,80.76,.07,52.44,.04,51.88,.01,270.00
2016.08.15-23:00,.37,187.52,.43,94.33,.87,80.04,1.05,74.48,1.05,76.73,.96,74.46,.87,78.14,.63,69.60,.52,72.69,.33,81.98,.06,44.94,.03,41.37,.01,270.00
2016.08.15-24:00,.34,201.42,.39,94.28,.86,80.15,1.06,74.35,1.05,76.71,.96,73.84,.86,78.52,.63,72.53,.51,73.88,.31,82.66,.05,32.44,.01,357.97,.02,270.00
2016.08.16-01:00,.31,216.45,.35,93.75,.84,80.58,1.07,74.71,1.05,76.70,.96,73.34,.85,78.71,.63,75.33,.50,75.53,.29,82.64,.05,18.52,.02,292.78,.03,270.00
2016.08.16-02:00,.30,232.54,.31,92.38,.82,81.10,1.07,75.33,1.05,76.56,.98,72.89,.84,78.49,.62,77.34,.49,77.21,.27,81.99,.05,13.48,.03,272.45,.03,270.00
2016.08.16-03:00,.29,245.88,.27,89.09,.80,81.32,1.08,75.97,1.06,76.23,1.00,72.53,.84,77.75,.61,78.15,.48,78.45,.27,81.03,.05,21.19,.03,266.92,.03,270.00
2016.08.16-04:00,.28,255.55,.25,82.85,.79,80.81,1.09,76.36,1.07,75.75,1.02,72.36,.85,76.56,.61,77.70,.48,78.85,.29,80.09,.06,35.65,.02,273.17,.03,270.00
2016.08.16-05:00,.24,262.24,.25,75.60,.77,79.52,1.09,76.38,1.09,75.18,1.05,72.42,.86,75.10,.61,76.42,.49,78.38,.31,79.55,.08,49.12,.01,345.95,.02,270.00
2016.08.16-06:00,.17,263.89,.29,71.62,.78,77.96,1.10,76.12,1.11,74.69,1.08,72.77,.87,73.62,.63,75.00,.51,77.29,.34,79.21,.11,58.26,.03,48.80,.01,270.00
2016.08.16-07:00,.08,250.58,.35,71.19,.79,76.55,1.12,75.63,1.13,74.27,1.10,73.33,.90,72.31,.65,73.91,.53,75.77,.37,78.89,.14,63.51,.05,53.60,.01,270.00
2016.08.16-08:00,.05,168.66,.40,72.55,.81,75.59,1.13,75.03,1.15,74.02,1.12,74.12,.92,71.44,.67,73.46,.55,74.29,.39,78.98,.16,67.19,.07,54.16,.00,270.00
2016.08.16-09:00,.10,137.81,.44,74.61,.83,75.15,1.14,74.40,1.17,73.92,1.13,74.99,.94,70.96,.68,73.37,.56,72.87,.41,79.28,.17,69.69,.09,52.89,.00,90.00
2016.08.16-10:00,.13,138.23,.46,77.02,.84,75.14,1.14,73.89,1.18,74.03,1.13,75.89,.96,70.82,.68,73.49,.57,71.68,.41,79.88,.16,71.65,.09,50.51,.00,90.00
2016.08.16-11:00,.11,150.59,.45,79.03,.83,75.00,1.14,73.57,1.18,74.37,1.12,76.79,.97,71.03,.67,73.89,.57,71.10,.40,80.90,.14,73.33,.08,46.08,.00,270.00
2016.08.16-12:00,.07,185.34,.41,80.43,.81,74.45,1.14,73.59,1.18,75.03,1.10,77.67,.97,71.63,.66,74.73,.57,71.55,.38,82.44,.11,74.72,.07,37.68,.00,270.00
2016.08.16-13:00,.09,247.45,.35,80.70,.79,73.50,1.14,74.03,1.18,75.87,1.08,78.33,.98,72.40,.64,75.73,.56,72.98,.35,84.21,.08,74.62,.05,22.67,.01,270.00
2016.08.16-14:00,.15,272.02,.29,78.49,.78,72.51,1.14,74.93,1.17,76.79,1.06,78.66,.98,73.22,.62,76.55,.55,75.13,.33,86.21,.05,72.18,.04,3.17,.02,270.00
2016.08.16-15:00,.20,286.02,.25,71.96,.79,71.84,1.13,76.16,1.15,77.65,1.03,78.59,.98,74.06,.60,76.66,.54,77.37,.31,87.90,.03,62.23,.04,347.66,.02,270.00
2016.08.16-16:00,.21,299.74,.23,62.48,.80,71.70,1.13,77.40,1.14,78.31,1.01,78.23,.97,74.99,.59,75.95,.53,79.26,.30,88.89,.02,45.01,.03,343.93,.02,270.00
2016.08.16-17:00,.19,314.63,.25,54.94,.82,71.99,1.11,78.27,1.12,78.57,.99,77.65,.97,75.94,.59,74.67,.53,80.61,.30,89.18,.03,41.57,.03,359.39,.01,270.00
2016.08.16-18:00,.15,339.24,.29,52.26,.84,72.65,1.10,78.62,1.11,78.36,.99,76.88,.97,76.75,.60,73.16,.54,81.28,.32,88.82,.05,46.62,.03,29.92,.01,270.00
2016.08.16-19:00,.13,21.55,.34,53.44,.85,73.72,1.10,78.57,1.10,77.80,.99,76.04,.97,77.30,.62,71.83,.54,81.31,.33,88.17,.07,51.31,.04,50.17,.00,270.00
2016.08.16-20:00,.18,58.60,.38,56.10,.86,74.94,1.09,78.17,1.09,77.02,1.00,75.22,.97,77.51,.65,70.86,.55,80.79,.34,87.63,.09,54.93,.06,59.34,.00,90.00
2016.08.16-21:00,.25,76.30,.42,58.55,.85,76.08,1.08,77.57,1.09,76.23,1.00,74.63,.97,77.52,.67,70.44,.55,79.93,.35,87.43,.10,57.60,.06,63.48,.00,90.00
2016.08.16-22:00,.29,79.81,.44,59.68,.84,76.78,1.07,76.82,1.09,75.62,1.01,74.36,.96,77.55,.69,70.79,.54,79.05,.34,87.63,.11,59.71,.06,65.68,.00,90.00
2016.08.16-23:00,.21,60.20,.46,59.72,.82,76.86,1.06,76.05,1.09,75.34,1.02,74.48,.95,77.81,.70,72.06,.53,78.51,.33,88.24,.10,61.27,.05,67.01,.00,270.00
2016.08.16-24:00,.23,50.90,.47,59.45,.80,76.32,1.06,75.39,1.10,75.43,1.03,74.88,.94,78.30,.70,74.08,.52,78.50,.31,89.15,.08,62.15,.03,67.51,.01,270.00
2016.08.17-01:00,.27,49.23,.48,60.06,.79,75.46,1.06,74.91,1.10,75.74,1.03,75.31,.92,78.82,.68,76.50,.50,79.03,.29,90.21,.06,61.83,.01,61.30,.02,270.00
2016.08.17-02:00,.29,56.09,.48,61.71,.78,74.47,1.06,74.54,1.10,75.98,1.02,75.45,.91,79.02,.67,78.88,.49,80.02,.27,91.29,.04,60.50,.01,256.41,.02,270.00
2016.08.17-03:00,.29,65.07,.48,63.98,.77,73.55,1.07,74.27,1.10,75.98,1.02,75.19,.89,78.69,.65,80.76,.48,81.05,.27,91.92,.03,59.12,.03,256.58,.03,270.00
2016.08.17-04:00,.29,73.60,.48,66.33,.78,73.02,1.08,74.20,1.10,75.80,1.02,74.72,.89,77.91,.64,81.82,.48,81.68,.27,91.71,.04,61.23,.03,261.21,.03,270.00
2016.08.17-05:00,.30,81.85,.49,68.21,.81,72.87,1.09,74.29,1.11,75.44,1.03,74.22,.89,76.85,.63,81.95,.49,81.59,.29,90.59,.06,64.88,.01,282.77,.02,270.00
2016.08.17-06:00,.32,90.02,.51,69.83,.83,73.00,1.11,74.49,1.12,74.98,1.05,73.89,.90,75.74,.64,81.18,.50,80.74,.32,88.92,.08,67.66,.02,27.15,.02,270.00
2016.08.17-07:00,.36,97.47,.53,71.74,.86,73.29,1.14,74.74,1.14,74.51,1.07,73.80,.92,74.69,.65,79.71,.53,79.21,.35,87.21,.12,69.61,.05,50.00,.01,270.00
2016.08.17-08:00,.44,104.11,.57,74.23,.90,73.72,1.16,74.99,1.16,74.15,1.10,73.97,.95,73.85,.67,77.94,.55,77.26,.37,85.86,.15,71.06,.08,54.23,.00,90.00
2016.08.17-09:00,.52,111.46,.60,76.98,.92,74.25,1.18,75.19,1.19,74.01,1.12,74.40,.97,73.33,.69,76.28,.58,75.31,.39,85.08,.17,72.35,.10,55.01,.01,90.00
2016.08.17-10:00,.55,119.82,.62,79.49,.93,74.80,1.18,75.30,1.20,74.12,1.13,75.02,.99,73.12,.69,74.94,.60,73.65,.40,84.95,.17,73.67,.12,54.44,.01,90.00
2016.08.17-11:00,.54,129.21,.61,81.39,.92,75.26,1.18,75.27,1.21,74.45,1.13,75.72,.99,73.19,.70,73.99,.61,72.60,.39,85.51,.17,75.15,.12,52.78,.01,90.00
2016.08.17-12:00,.51,140.51,.57,82.52,.90,75.58,1.17,75.20,1.21,75.01,1.12,76.44,.99,73.55,.69,73.64,.61,72.63,.37,86.76,.14,76.71,.11,49.33,.01,90.00
2016.08.17-13:00,.46,153.89,.51,82.55,.87,75.68,1.16,75.14,1.20,75.70,1.10,77.05,.99,74.10,.68,73.91,.61,73.99,.35,88.57,.10,78.26,.09,43.22,.00,90.00
2016.08.17-14:00,.41,169.18,.46,81.10,.85,75.62,1.15,75.22,1.19,76.38,1.08,77.45,.98,74.72,.66,74.66,.61,76.59,.32,90.61,.07,79.06,.06,33.50,.00,270.00
2016.08.17-15:00,.35,186.46,.41,77.86,.83,75.54,1.14,75.53,1.17,76.99,1.06,77.66,.97,75.36,.65,75.60,.59,80.02,.30,92.44,.04,75.75,.05,21.19,.01,270.00
2016.08.17-16:00,.30,205.60,.39,73.20,.83,75.53,1.13,76.04,1.16,77.43,1.05,77.72,.96,75.97,.64,76.26,.58,83.52,.28,93.46,.02,57.50,.04,13.42,.01,270.00
2016.08.17-17:00,.25,227.03,.40,68.72,.83,75.66,1.12,76.66,1.14,77.70,1.03,77.73,.96,76.48,.63,76.29,.57,86.37,.28,93.36,.02,38.47,.03,20.78,.01,270.00
2016.08.17-18:00,.22,250.52,.42,66.04,.85,75.92,1.12,77.22,1.13,77.78,1.03,77.69,.95,76.77,.64,75.60,.56,88.06,.30,92.44,.04,42.18,.03,43.23,.00,270.00
2016.08.17-19:00,.19,275.66,.45,65.55,.86,76.21,1.11,77.52,1.12,77.66,1.03,77.48,.96,76.64,.65,74.35,.55,88.31,.32,91.21,.07,49.59,.05,59.99,.00,90.00
2016.08.17-20:00,.17,305.66,.49,66.84,.87,76.51,1.11,77.58,1.12,77.49,1.03,77.08,.96,76.12,.68,72.98,.55,87.23,.34,90.15,.10,55.12,.07,67.28,.01,90.00
2016.08.17-21:00,.18,340.37,.53,69.15,.88,76.87,1.11,77.48,1.12,77.41,1.03,76.57,.96,75.50,.70,71.93,.54,85.23,.36,89.62,.12,59.19,.08,70.28,.01,90.00
2016.08.17-22:00,.23,7.71,.57,71.52,.88,77.06,1.10,77.16,1.12,77.36,1.02,75.99,.97,75.02,.73,71.52,.54,82.89,.36,89.71,.13,62.51,.09,71.50,.01,90.00
2016.08.17-23:00,.30,25.06,.59,73.46,.87,76.95,1.09,76.56,1.11,77.30,1.02,75.47,.97,74.96,.75,72.07,.54,80.97,.36,90.51,.13,65.50,.08,71.63,.01,90.00
2016.08.17-24:00,.35,37.58,.59,74.97,.86,76.67,1.08,75.75,1.10,77.20,1.02,75.10,.97,75.41,.75,73.72,.53,80.04,.34,92.05,.12,68.36,.06,69.68,.00,90.00
2016.08.18-01:00,.39,47.85,.57,76.07,.85,76.41,1.08,74.91,1.10,77.02,1.02,74.84,.96,76.20,.75,76.23,.53,80.18,.31,94.28,.09,71.56,.03,60.34,.01,270.00
2016.08.18-02:00,.39,55.94,.55,76.79,.83,76.29,1.08,74.24,1.09,76.71,1.02,74.57,.96,77.02,.74,79.09,.52,81.11,.29,97.02,.06,76.71,.01,354.03,.02,270.00
2016.08.18-03:00,.37,62.39,.52,77.00,.83,76.23,1.08,73.88,1.09,76.22,1.02,74.21,.95,77.65,.72,81.80,.51,82.27,.27,99.45,.05,85.15,.02,291.09,.02,270.00
2016.08.18-04:00,.34,68.94,.51,76.94,.84,76.30,1.10,73.95,1.09,75.69,1.02,73.96,.94,78.14,.70,84.07,.50,83.21,.27,100.57,.04,92.46,.03,287.98,.03,270.00
2016.08.18-05:00,.31,76.82,.50,76.55,.85,76.40,1.12,74.35,1.10,75.14,1.04,73.87,.94,78.45,.68,85.58,.50,83.61,.27,99.83,.05,90.44,.03,305.92,.02,270.00
2016.08.18-06:00,.28,87.23,.50,76.00,.87,76.45,1.14,74.93,1.12,74.65,1.06,73.97,.95,78.49,.68,86.02,.51,83.24,.29,97.56,.07,83.83,.03,2.09,.02,270.00
2016.08.18-07:00,.27,97.59,.52,75.82,.89,76.38,1.16,75.54,1.15,74.29,1.09,74.21,.96,78.15,.68,85.32,.54,82.03,.32,94.65,.09,78.95,.05,39.69,.00,270.00
2016.08.18-08:00,.26,106.41,.54,76.46,.92,76.13,1.18,76.07,1.18,74.10,1.13,74.54,.98,77.48,.69,83.74,.57,80.26,.35,91.85,.13,76.21,.09,51.58,.01,90.00
2016.08.18-09:00,.27,112.45,.57,78.17,.94,75.85,1.20,76.61,1.21,74.25,1.16,75.08,1.00,76.76,.71,81.86,.60,78.51,.37,89.58,.15,74.51,.12,55.79,.02,90.00
2016.08.18-10:00,.27,115.59,.60,79.98,.96,75.39,1.20,77.03,1.23,74.62,1.17,75.70,1.01,76.06,.72,79.97,.63,77.14,.39,88.13,.17,73.57,.15,57.54,.02,90.00
2016.08.18-11:00,.22,116.50,.60,81.11,.95,74.66,1.19,77.10,1.23,74.99,1.17,76.16,1.01,75.23,.71,78.07,.64,76.23,.39,87.73,.17,73.49,.16,58.53,.03,90.00
2016.08.18-12:00,.15,111.52,.58,81.69,.94,74.16,1.17,76.90,1.23,75.39,1.15,76.57,1.00,74.49,.71,76.49,.65,76.13,.38,88.44,.16,73.73,.15,58.34,.02,90.00
2016.08.18-13:00,.07,76.10,.54,81.36,.93,73.96,1.16,76.42,1.22,75.75,1.13,76.96,.99,74.07,.70,75.66,.65,77.13,.36,90.26,.13,74.10,.13,56.85,.02,90.00
2016.08.18-14:00,.11,.66,.50,79.35,.93,73.87,1.15,75.69,1.21,76.06,1.12,77.39,.98,74.09,.68,75.79,.64,79.30,.33,92.94,.09,73.96,.09,53.31,.01,90.00
2016.08.18-15:00,.24,348.34,.47,75.08,.92,73.67,1.14,74.95,1.20,76.45,1.10,77.95,.97,74.56,.67,76.73,.62,82.45,.31,95.88,.06,71.58,.06,46.56,.00,90.00
2016.08.18-16:00,.36,349.37,.45,69.04,.92,73.41,1.15,74.51,1.19,77.05,1.08,78.62,.96,75.29,.65,78.00,.61,86.07,.29,98.16,.04,62.59,.04,36.03,.00,270.00
2016.08.18-17:00,.46,354.96,.45,63.24,.93,73.41,1.16,74.67,1.19,77.88,1.07,79.25,.96,76.02,.65,79.04,.60,89.41,.28,98.86,.03,47.85,.03,28.16,.01,270.00
2016.08.18-18:00,.54,3.39,.48,59.47,.96,73.80,1.18,75.49,1.19,78.86,1.07,79.74,.97,76.59,.65,79.46,.59,91.86,.29,97.94,.04,45.05,.03,35.04,.00,270.00
2016.08.18-19:00,.61,13.23,.52,57.60,.98,74.22,1.20,76.65,1.19,79.69,1.07,79.89,.98,76.78,.66,78.93,.58,92.91,.30,96.06,.07,51.01,.05,49.19,.00,90.00
2016.08.18-20:00,.66,24.23,.58,57.63,.99,74.41,1.21,77.80,1.19,80.20,1.07,79.65,1.00,76.52,.68,77.39,.57,92.32,.33,94.04,.10,57.14,.07,58.16,.01,90.00
2016.08.18-21:00,.71,37.16,.64,60.35,1.01,74.66,1.22,78.86,1.19,80.51,1.07,79.16,1.02,76.06,.70,75.42,.56,90.42,.35,92.55,.13,61.63,.09,62.06,.01,90.00
2016.08.18-22:00,.79,49.22,.71,64.95,1.04,75.09,1.22,79.59,1.18,80.62,1.07,78.57,1.03,75.61,.73,73.65,.55,87.75,.36,91.88,.16,65.09,.11,63.23,.02,90.00
2016.08.18-23:00,.85,59.41,.76,69.87,1.05,75.58,1.20,79.74,1.17,80.45,1.06,77.91,1.03,75.32,.75,72.69,.54,85.00,.37,92.25,.16,68.16,.11,62.60,.02,90.00
2016.08.18-24:00,.78,71.97,.77,73.97,1.04,76.00,1.18,79.23,1.15,80.03,1.05,77.26,1.03,75.40,.76,73.01,.54,82.90,.36,93.80,.15,71.42,.10,60.04,.01,90.00
2016.08.19-01:00,.69,80.07,.75,76.71,1.03,76.31,1.15,78.24,1.13,79.46,1.03,76.62,1.02,75.97,.77,74.71,.53,81.85,.34,96.37,.13,75.42,.08,54.08,.01,90.00
2016.08.19-02:00,.62,85.39,.71,78.16,1.02,76.70,1.14,77.17,1.12,78.83,1.02,75.96,1.01,76.99,.77,77.50,.53,81.88,.31,99.71,.10,81.52,.05,40.97,.00,270.00
2016.08.19-03:00,.54,88.96,.67,78.33,1.01,77.17,1.14,76.27,1.11,78.02,1.02,75.05,1.00,78.11,.76,80.77,.52,82.70,.29,103.19,.07,92.28,.03,13.79,.01,270.00
2016.08.19-04:00,.46,90.61,.65,77.76,1.02,77.80,1.16,75.90,1.11,77.10,1.03,74.06,.99,79.22,.73,84.04,.51,83.93,.27,105.64,.05,106.92,.03,340.62,.02,270.00
2016.08.19-05:00,.40,90.37,.64,77.15,1.04,78.59,1.19,76.27,1.13,76.21,1.05,73.26,.98,80.23,.71,86.67,.51,85.07,.26,105.91,.04,113.33,.03,337.25,.02,270.00
2016.08.19-06:00,.34,88.30,.65,76.67,1.05,79.28,1.22,77.26,1.15,75.38,1.08,72.81,.98,80.92,.69,87.94,.52,85.59,.27,103.84,.05,102.66,.03,8.01,.01,270.00
2016.08.19-07:00,.30,84.49,.65,76.43,1.06,79.71,1.25,78.60,1.17,74.70,1.12,72.87,.99,81.17,.68,87.47,.54,85.19,.30,100.33,.07,88.22,.05,37.22,.00,270.00
2016.08.19-08:00,.26,77.72,.66,76.16,1.06,79.58,1.26,79.82,1.21,74.20,1.17,73.40,1.01,80.91,.69,85.50,.56,83.97,.33,96.65,.10,79.57,.09,50.15,.01,90.00
2016.08.19-09:00,.24,67.10,.67,75.79,1.06,78.84,1.26,80.54,1.24,73.97,1.22,74.34,1.02,80.20,.71,82.72,.60,82.28,.36,93.74,.13,75.45,.12,55.85,.02,90.00
2016.08.19-10:00,.27,59.26,.71,76.38,1.09,78.20,1.27,80.81,1.29,74.40,1.26,75.86,1.03,79.44,.73,80.14,.63,80.73,.38,91.84,.16,72.99,.15,57.85,.03,90.00
2016.08.19-11:00,.31,53.66,.75,77.47,1.10,77.72,1.26,80.55,1.32,75.11,1.28,77.42,1.03,78.55,.75,78.15,.65,79.53,.40,90.99,.17,71.77,.17,58.90,.03,90.00
2016.08.19-12:00,.35,49.32,.76,78.95,1.11,77.50,1.24,79.65,1.33,75.79,1.26,78.61,1.01,77.39,.76,76.88,.66,78.89,.39,91.31,.17,71.34,.17,59.33,.03,90.00
2016.08.19-13:00,.38,45.81,.76,80.57,1.10,77.53,1.22,78.22,1.32,76.32,1.23,79.29,.99,76.08,.75,76.51,.66,79.23,.38,92.96,.15,71.19,.16,58.82,.03,90.00
2016.08.19-14:00,.40,41.90,.73,81.38,1.09,77.59,1.21,76.66,1.31,76.76,1.20,79.61,.97,74.97,.74,77.13,.66,80.75,.35,95.92,.12,70.85,.13,57.12,.02,90.00
2016.08.19-15:00,.43,36.98,.70,80.63,1.08,77.61,1.21,75.56,1.30,77.35,1.17,79.94,.96,74.51,.72,78.63,.64,83.35,.32,99.53,.08,69.02,.10,53.49,.01,90.00
2016.08.19-16:00,.46,32.03,.66,77.87,1.08,77.56,1.22,75.23,1.29,78.17,1.15,80.41,.96,74.72,.70,80.66,.63,86.67,.29,102.85,.05,63.15,.06,46.69,.01,90.00
2016.08.19-17:00,.50,30.12,.63,73.81,1.08,77.64,1.25,75.78,1.29,79.20,1.15,81.05,.97,75.36,.68,82.66,.61,90.09,.27,104.48,.04,51.33,.04,37.25,.00,270.00
2016.08.19-18:00,.53,33.17,.65,70.08,1.10,77.97,1.28,77.08,1.30,80.34,1.15,81.73,.98,76.12,.67,84.04,.60,93.00,.27,103.57,.05,45.49,.04,34.20,.00,270.00
2016.08.19-19:00,.55,37.24,.69,67.57,1.12,78.27,1.30,78.56,1.30,81.29,1.15,82.15,1.00,76.61,.66,84.17,.59,94.84,.28,100.66,.07,50.71,.05,42.24,.00,90.00
2016.08.19-20:00,.56,40.34,.74,66.51,1.14,78.37,1.31,79.83,1.30,81.97,1.15,82.20,1.02,76.61,.67,82.76,.58,95.16,.30,97.21,.10,57.39,.07,50.13,.01,90.00
2016.08.19-21:00,.56,44.72,.80,67.38,1.15,78.45,1.32,80.74,1.31,82.39,1.15,81.88,1.04,76.15,.68,80.10,.57,93.89,.33,94.50,.14,62.50,.10,53.88,.01,90.00
2016.08.19-22:00,.59,57.62,.86,70.60,1.17,78.94,1.31,81.29,1.30,82.64,1.15,81.28,1.06,75.38,.71,76.98,.57,91.28,.36,92.99,.17,66.66,.12,55.32,.02,90.00
2016.08.19-23:00,.64,67.47,.93,75.54,1.19,80.01,1.31,81.43,1.29,82.71,1.15,80.42,1.08,74.59,.74,74.35,.56,87.96,.37,92.74,.18,70.53,.13,55.45,.02,90.00
2016.08.19-24:00,.68,76.24,.97,80.64,1.20,81.31,1.29,80.97,1.27,82.46,1.13,79.31,1.09,74.06,.77,73.03,.56,84.94,.37,93.77,.18,74.61,.13,54.31,.02,90.00
2016.08.20-01:00,.69,82.72,.98,84.59,1.18,82.37,1.26,79.85,1.24,81.75,1.11,77.94,1.09,74.01,.78,73.44,.55,83.14,.36,96.03,.16,79.33,.12,51.32,.02,90.00
2016.08.20-02:00,.66,87.19,.95,87.09,1.15,82.99,1.24,78.41,1.20,80.71,1.09,76.54,1.08,74.70,.78,75.55,.55,82.90,.33,99.26,.13,85.54,.10,44.87,.01,90.00
2016.08.20-03:00,.59,90.16,.88,88.24,1.12,83.16,1.23,77.08,1.18,79.51,1.08,75.37,1.07,76.08,.77,78.74,.54,83.90,.31,103.03,.09,95.95,.07,33.07,.00,270.00
2016.08.20-04:00,.53,91.40,.83,88.17,1.10,83.08,1.24,76.28,1.18,78.29,1.09,74.53,1.07,77.84,.75,82.22,.54,85.50,.28,106.58,.06,114.90,.05,16.09,.01,270.00
2016.08.20-05:00,.48,90.72,.80,87.44,1.10,83.10,1.27,76.27,1.19,77.31,1.12,74.17,1.07,79.77,.72,85.32,.53,87.11,.27,108.69,.04,137.12,.04,5.01,.01,270.00
2016.08.20-06:00,.45,88.39,.78,86.51,1.11,83.31,1.31,76.93,1.22,76.62,1.15,74.31,1.07,81.63,.69,87.41,.52,88.19,.27,108.31,.03,139.79,.04,15.76,.01,270.00
2016.08.20-07:00,.41,84.54,.77,85.44,1.11,83.52,1.35,78.02,1.25,76.21,1.20,74.86,1.09,83.15,.68,87.91,.53,88.31,.28,105.39,.04,110.95,.05,37.69,.00,90.00
2016.08.20-08:00,.36,79.96,.76,84.19,1.11,83.49,1.37,79.34,1.29,76.06,1.24,75.72,1.10,84.22,.69,86.84,.55,87.45,.30,101.11,.06,82.40,.08,50.21,.01,90.00
2016.08.20-09:00,.29,69.89,.74,82.40,1.09,82.78,1.38,80.42,1.32,75.94,1.28,76.56,1.12,84.73,.71,84.75,.59,86.04,.34,97.11,.09,70.48,.11,55.28,.02,90.00
2016.08.20-10:00,.29,57.07,.74,80.59,1.08,81.39,1.38,80.92,1.36,75.87,1.31,77.37,1.12,84.78,.75,82.57,.63,84.65,.37,94.44,.13,65.57,.14,56.78,.03,90.00
2016.08.20-11:00,.36,54.12,.79,80.44,1.10,80.22,1.38,81.03,1.39,76.15,1.34,78.43,1.12,84.68,.78,80.94,.66,83.60,.39,93.17,.15,62.96,.16,56.49,.03,90.00
2016.08.20-12:00,.44,55.87,.84,81.62,1.12,79.36,1.37,80.57,1.41,76.38,1.33,79.21,1.08,84.04,.79,79.46,.67,82.53,.40,93.19,.17,62.89,.18,56.95,.03,90.00
2016.08.20-13:00,.51,58.49,.87,83.44,1.13,78.89,1.35,79.69,1.40,76.48,1.30,79.65,1.03,82.72,.77,78.23,.66,81.65,.39,94.49,.17,64.33,.17,57.73,.03,90.00
2016.08.20-14:00,.56,59.30,.86,84.44,1.14,78.36,1.33,78.61,1.40,76.54,1.26,79.84,.98,80.90,.75,77.88,.64,81.75,.37,97.18,.15,66.19,.15,57.53,.03,90.00
2016.08.20-15:00,.61,58.38,.84,83.76,1.15,77.66,1.32,77.78,1.39,76.84,1.22,79.92,.94,78.96,.73,78.69,.63,83.29,.34,101.00,.12,68.05,.12,55.28,.02,90.00
2016.08.20-16:00,.66,56.69,.81,81.60,1.15,77.17,1.33,77.61,1.38,77.55,1.19,80.00,.91,77.24,.70,80.38,.61,86.09,.31,105.10,.08,69.95,.08,49.94,.01,90.00
2016.08.20-17:00,.71,55.16,.78,78.28,1.16,77.06,1.34,78.19,1.38,78.60,1.18,80.25,.91,75.99,.68,82.47,.60,89.56,.29,108.16,.06,70.89,.05,37.57,.00,90.00
2016.08.20-18:00,.75,54.75,.77,74.45,1.17,77.34,1.35,79.38,1.38,79.86,1.18,80.74,.93,75.40,.67,84.37,.59,92.87,.28,108.84,.05,69.66,.04,19.93,.00,270.00
2016.08.20-19:00,.80,56.06,.79,71.15,1.19,77.80,1.35,80.74,1.39,81.03,1.18,81.29,.96,75.21,.66,85.42,.59,95.36,.28,106.77,.05,68.56,.04,19.74,.00,270.00
2016.08.20-20:00,.87,59.10,.84,69.37,1.21,78.28,1.36,81.88,1.39,81.89,1.19,81.61,1.00,75.09,.67,85.14,.58,96.53,.29,103.06,.08,69.37,.06,33.11,.00,90.00
2016.08.20-21:00,.94,63.40,.90,69.23,1.23,78.72,1.35,82.55,1.39,82.40,1.20,81.57,1.04,74.90,.68,83.52,.58,96.09,.31,99.33,.11,70.44,.08,42.04,.01,90.00
2016.08.20-22:00,1.01,68.79,.96,70.65,1.25,79.27,1.34,82.66,1.39,82.75,1.21,81.18,1.09,74.63,.71,80.97,.58,94.14,.34,96.70,.14,71.74,.11,46.17,.02,90.00
2016.08.20-23:00,1.09,75.38,1.02,73.67,1.26,80.21,1.33,82.29,1.39,83.08,1.22,80.47,1.12,74.35,.74,78.13,.58,91.04,.37,95.51,.16,73.67,.14,48.24,.02,90.00
2016.08.20-24:00,1.13,81.69,1.09,77.79,1.28,81.48,1.32,81.44,1.39,83.28,1.22,79.50,1.15,74.20,.76,75.82,.57,87.58,.38,95.65,.17,76.15,.15,48.91,.02,90.00
2016.08.21-01:00,1.14,87.23,1.15,82.18,1.28,82.77,1.30,80.16,1.36,83.19,1.21,78.29,1.15,74.26,.78,74.64,.56,84.69,.37,97.00,.15,79.59,.15,48.86,.02,90.00
2016.08.21-02:00,1.16,92.24,1.16,85.86,1.26,83.54,1.28,78.60,1.31,82.68,1.18,76.99,1.13,74.68,.78,74.91,.55,83.20,.36,99.39,.13,84.29,.13,47.64,.02,90.00
2016.08.21-03:00,1.12,95.83,1.12,88.11,1.22,83.46,1.27,77.05,1.26,81.79,1.17,75.91,1.11,75.57,.76,76.73,.54,83.63,.33,102.64,.09,91.66,.11,44.18,.01,90.00
2016.08.21-04:00,1.04,97.70,1.06,88.76,1.19,82.88,1.27,76.01,1.24,80.71,1.17,75.40,1.10,76.88,.75,79.60,.54,85.50,.31,106.27,.06,106.27,.08,37.80,.01,90.00
2016.08.21-05:00,.93,98.05,.99,88.15,1.18,82.47,1.30,75.86,1.24,79.76,1.19,75.70,1.09,78.54,.73,82.83,.53,87.91,.29,109.28,.03,134.85,.05,28.20,.00,270.00
2016.08.21-06:00,.80,96.69,.93,86.58,1.17,82.31,1.33,76.39,1.25,79.01,1.22,76.64,1.10,80.21,.71,85.44,.53,89.96,.28,110.70,.02,161.38,.04,23.67,.00,270.00
2016.08.21-07:00,.70,92.86,.87,84.27,1.16,82.30,1.36,77.27,1.27,78.52,1.24,77.99,1.10,81.70,.69,86.79,.53,90.98,.28,109.85,.02,134.10,.05,35.21,.00,90.00
2016.08.21-08:00,.67,88.20,.86,81.75,1.17,82.38,1.38,78.47,1.29,78.46,1.27,79.72,1.11,83.06,.68,86.89,.54,90.70,.30,107.09,.03,80.29,.06,47.76,.01,90.00
2016.08.21-09:00,.67,84.21,.88,79.41,1.18,82.14,1.40,79.65,1.32,78.58,1.29,81.36,1.13,84.06,.70,85.99,.56,89.38,.33,103.49,.07,65.80,.09,52.67,.01,90.00
2016.08.21-10:00,.69,81.48,.90,77.34,1.18,81.14,1.41,80.38,1.34,78.49,1.30,82.39,1.14,84.50,.73,84.67,.60,87.77,.36,100.26,.10,61.62,.12,53.64,.02,90.00
2016.08.21-11:00,.74,81.02,.96,76.82,1.21,80.09,1.43,80.90,1.38,78.58,1.30,83.07,1.15,84.72,.77,83.68,.64,86.56,.38,98.18,.13,59.44,.14,52.34,.03,90.00
2016.08.21-12:00,.80,81.78,1.01,77.32,1.23,78.97,1.43,80.90,1.39,78.44,1.28,83.03,1.14,84.42,.78,82.52,.65,85.33,.39,97.39,.16,60.44,.16,53.00,.03,90.00
2016.08.21-13:00,.86,83.88,1.07,79.07,1.25,78.37,1.42,80.58,1.40,78.14,1.25,82.40,1.10,83.52,.77,80.95,.64,83.83,.39,97.79,.17,63.28,.17,55.07,.03,90.00